Preview of NWS' New Version of Forecast
This preview is not operational and should not be used for support decisions.

Regional Weather Roundup (RWR)

Issued by National Weather Service (NWS)

                            
000
ASUS42 KTBW 222116
RWRFL 
FLORIDA REGIONAL WEATHER ROUNDUP
NATIONAL WEATHER SERVICE TAMPA BAY RUSKIN FL
500 PM EDT WED MAY 22 2019

NOTE: "FAIR" INDICATES FEW OR NO CLOUDS BELOW 12,000 FEET WITH NO
SIGNIFICANT WEATHER AND/OR OBSTRUCTIONS TO VISIBILITY.

FLZ001>010-012>015-112-114-115-222200-
PANHANDLE FLORIDA
  
CITY           SKY/WX    TMP DP  RH WIND       PRES   REMARKS
PENSACOLA      FAIR      85  72  65 SE12      30.07S                  
PENSACOLA NAS  FAIR      84  74  71 SE10      30.07R                  
MILTON NAS     FAIR      87  68  52 S8        30.07S                  
CRESTVIEW      FAIR      92  56  29 SW8       30.07F                  
DUKE FIELD     FAIR      91  61  36 S7        30.06S                  
VALPARAISO     MOSUNNY   85  68  56 S8        30.07S                  
MARY ESTHER    FAIR      85  71  62 S9        30.06S                  
PANAMA CITY    FAIR      90  67  46 S13       30.06R                  
TYNDALL AFB    FAIR      85  74  67 SW9       30.06S                  
APALACHICOLA   FAIR      87  69  54 S9        30.06F                  

STATION/POSITION SKY/WX   TEMP    WIND        PRES    WAVE   SWELL
                          AIR SEA DIR/SP/G            HT/PER HT/PER
                          (F)     (DEG/KT/KT) (MB)    (FT/S) (FT/S)
30.1N   87.6W                                   N/A     3/ 6
29.2N   88.2W                     130/ 10/ 14 1018.0R   4/ 6   3/ 6
PANAMA CITY BEAC           82 83  220/  7/  9 1018.5F
TOWER C          NOT AVBL

$$
FLZ011-016>038-118-127-128-134-139-239-222200-
NORTH FLORIDA
  
CITY           SKY/WX    TMP DP  RH WIND       PRES   REMARKS
MARIANNA       PTSUNNY   94  64  37 CALM      30.03F HX  95           
TALLAHASSEE    PTSUNNY   93  68  43 S10G17    30.04F HX  97           
PERRY          RAIN      79  74  84 W20G25    30.06S                  
LIVE OAK       MOSUNNY   95  63  34 NE7       30.04F HX  96           
CROSS CITY     FAIR      91  75  59 SW8       30.05S HX 101           
LAKE CITY      FAIR      93  61  33 E9        30.07R                  
GAINESVILLE    FAIR      92  63  38 E14       30.09S                  
WILLISTON      FAIR      93  58  30 SE10      30.05S                  
PALATKA        FAIR      93  59  31 SE16      30.10R                  
MAYPORT NAS    FAIR      85  70  60 E14       30.12S                  
JACKSONVILLE   FAIR      88  65  46 E14       30.11R                  
JAX CECIL      SUNNY     93  59  31 E18       30.09S                  
FERNANDINA BEA FAIR      83  73  71 SE13      30.13R                  
ST AUGUSTINE   FAIR      83  71  67 E13       30.13S                  
PALM COAST     MOSUNNY   84  68  58 E13G20    30.12S                  

STATION/POSITION SKY/WX   TEMP    WIND        PRES    WAVE   SWELL
                          AIR SEA DIR/SP/G            HT/PER HT/PER
                          (F)     (DEG/KT/KT) (MB)    (FT/S) (FT/S)
SHELL POINT      NOT AVBL
KEATON BEACH               84     270/  8/  9 1018.0F
CEDAR KEY                  84     280/  6/  8 1017.7F
FERNANDINA                        120/  7/ 16 1020.8R
30.7N   81.3W                 80                N/A     2/ 8
MAYPORT                            90/ 11/ 15 1020.4R
31.4N   80.9W              79 79  120/ 12/ 14 1020.5R   2/ 5   2/ 8
ST AUGUSTINE               79 83   90/ 11/ 13 1020.4S

$$
FLZ040-043>046-052-053-057-058-063-144-222200-
INTERIOR CENTRAL FLORIDA
  
CITY           SKY/WX    TMP DP  RH WIND       PRES   REMARKS
OCALA          FAIR      93  64  38 SE8       30.07S                  
LEESBURG       FAIR      90  57  32 E12       30.07F                  
SANFORD        FAIR      86  63  45 E14       30.10R                  
ORLANDO EXEC   FAIR      88  59  37 E16       30.09R                  
ORLANDO INTL   FAIR      88  58  36 E17       30.09R                  
KISSIMMEE      FAIR      87  61  41 E18       30.09R                  
WINTER HAVEN   FAIR      92  63  38 E15       30.07S                  
LAKELAND       MOSUNNY   90  63  40 E10G16    30.06S                  
BARTOW         MOSUNNY   91  61  35 E13G20    30.05S                  
SEBRING        FAIR      90  62  40 NE13      30.06S                  
OKEECHOBEE     FAIR      86  64  48 E6        30.06S                  

$$
FLZ041-047-054-059-064-141-147-222200-
EAST CENTRAL FLORIDA
  
CITY           SKY/WX    TMP DP  RH WIND       PRES   REMARKS
ORMOND BEACH   MOSUNNY   81  68  65 E9        30.12R                  
DAYTONA BEACH  PTSUNNY   82  70  66 VRB7      30.12R                  
DELAND         FAIR      86  63  45 E16       30.11R                  
NEW SMYRNA BEA MOSUNNY   84  68  58 E12       30.13R                  
JFK SPACE CTR  FAIR      82  69  63 E9        30.10S                  
TITUSVILLE     MOSUNNY   88  63  42 E14       30.11S                  
CAPE CANAVERAL FAIR      83  57  40 E13       30.10R                  
PATRICK AFB    FAIR      83  67  57 E14       30.10S                  
MELBOURNE      FAIR      84  65  52 NE14      30.09F                  
VERO BEACH     FAIR      82  64  54 E14       30.09S                  
FT PIERCE      FAIR      83  64  52 E13G21    30.08S                  
STUART         MOSUNNY   84  66  54 E17G23    30.09F                  

STATION/POSITION SKY/WX   TEMP    WIND        PRES    WAVE   SWELL
                          AIR SEA DIR/SP/G            HT/PER HT/PER
                          (F)     (DEG/KT/KT) (MB)    (FT/S) (FT/S)
28.5N   80.2W              79      80/ 10/ 14 1020.1R   2/ 8   2/ 8
28.9N   78.5W              78 80   50/ 12/ 14 1020.2F   2/ 8   2/ 8
TRIDENT PIER               82 83   80/ 10/ 13 1020.9S
28.4N   80.5W                 81                N/A     2/ 8
27.5N   80.2W                 80                N/A     2/ 4

$$
FLZ050-056-061-142-242-148-248-149-249-151-251-155-255-
160-260-222200-
WEST CENTRAL FLORIDA
  
CITY           SKY/WX    TMP DP  RH WIND       PRES   REMARKS
CRYSTAL RIVER  FAIR      93  59  31 E10       30.05S                  
INVERNESS      FAIR      93  63  36 E8G17     30.06S                  
BROOKSVILLE    FAIR      93  60  33 E10G18    30.05S                  
CLEARWATER AIR FAIR      86  70  58 NW7       30.04S                  
ST PETE CLEARW FAIR      91  65  41 N3        30.03F                  
TAMPA INTL     FAIR      93  61  34 VRB6      30.04S                  
TAMPA EXEC     FAIR      91  63  38 NE6       30.04F                  
PLANT CITY     FAIR      93  57  29 E12G18    30.07S                  
MACDILL AFB    FAIR      92  62  36 NE14      30.03F                  
PETER O KNIGHT CLOUDY    95  61  31 E9G16     30.04S HX  95           
ST PETERSBURG  FAIR      88  68  51 NE6       30.02S                  
SARASOTA       FAIR      94  62  34 E8        30.01S                  
VENICE         FAIR      90  73  58 NW10G17   30.03F HX  98           

STATION/POSITION SKY/WX   TEMP    WIND        PRES    WAVE   SWELL
                          AIR SEA DIR/SP/G            HT/PER HT/PER
                          (F)     (DEG/KT/KT) (MB)    (FT/S) (FT/S)
27.3N   84.2W                 82                N/A     2/ 5
CLEARWATER BEACH           83 86  320/  9/ 10 1017.4F
MIDDLE TAMPA BAY                   30/  9/ 10 1017.1F
VENICE                     84 83  290/  9/ 11 1016.7F

$$
FLZ066-069-070-075>078-162-262-165-265-222200-
SOUTHWEST FLORIDA AND KEYS
  
CITY           SKY/WX    TMP DP  RH WIND       PRES   REMARKS
PUNTA GORDA    FAIR      90  60  36 E13G21    30.03F                  
FT MYERS       FAIR      89  64  43 E14       30.02R                  
SOUTHWEST INTL FAIR      91  61  36 E16G25    30.02F                  
NAPLES         PTSUNNY   91  63  39 E16       30.01S                  
MARCO ISLAND   FAIR      93  66  40 NE12      30.02F HX  96           
IMMOKALEE      FAIR      90  66  45 NE13G20   30.02R                  
MARATHON       FAIR      89  67  47 E13G20    30.01F                  
KEY WEST NAS   FAIR      89  70  53 E17       30.01S                  
KEY WEST INTL  FAIR      86  71  60 E17       30.01S                  

STATION/POSITION SKY/WX   TEMP    WIND        PRES    WAVE   SWELL
                          AIR SEA DIR/SP/G            HT/PER HT/PER
                          (F)     (DEG/KT/KT) (MB)    (FT/S) (FT/S)
NAPLES                                        1016.3F
DRY TORTUGAS               83      80/ 17/ 18 1016.0F
SAND KEY                   81                 1015.8F
SOMBRERO KEY               81                 1015.7F

$$
FLZ067-068-071>074-168-172>174-222200-
SOUTHEAST FLORIDA 
  
CITY           SKY/WX    TMP DP  RH WIND       PRES   REMARKS
W PALM BEACH   FAIR      85  67  54 E13       30.07S                  
BOCA RATON     MOSUNNY   88  68  51 E15       30.06S                  
FT LAUDER-EXEC FAIR      85  66  53 E14       30.05S                  
FT LAUDERDALE  FAIR      83  67  58 E13       30.04F                  
POMPANO BEACH  FAIR      85  66  53 E15       30.05F                  
PEMBROKE PINES FAIR      85  65  51 E13       30.06S                  
OPA LOCKA      FAIR      86  66  51 E15       30.05F                  
MIAMI          FAIR      86  66  51 E17       30.04F                  
WEST KENDALL   FAIR      88  63  43 E16G22    30.03F                  
HOMESTEAD      FAIR      84  69  59 NE15      30.03F                  

STATION/POSITION SKY/WX   TEMP    WIND        PRES    WAVE   SWELL
                          AIR SEA DIR/SP/G            HT/PER HT/PER
                          (F)     (DEG/KT/KT) (MB)    (FT/S) (FT/S)
PORT EVERGLADES            82      70/  8/ 12 1017.7
VIRGINIA KEY               82 86   50/ 12/ 15 1016.8F
LAKE WORTH                 80 83              1019.2F
SETTLEMENT POINT           80      60/ 18/ 19 1018.3F

$$